When you browse on this site, cookies collect data to enhance your experience and personalize the content and advertising you see.
Visit our Privacy Policy to learn more. By continuing to use the site, you agree to this use of cookies and data.
  • In Portugal
  • List of Countries
  • For 7 days
  • Water Temperature
  • Satellite Maps
  • Weather Map
  • Weather Widgets
  • user-avatar
    Login

    Hourly Weather Kepina

    Today, 16 July, Tuesday

    Time Temperature Precipitation Wind Pressure Humidity
    00:00 +14°C° 0 mm 1 mps 754 mmHg 93%
    01:00 +14°C° 0 mm 1 mps 753 mmHg 92%
    02:00 +15°C° 0 mm 1 mps 753 mmHg 91%
    03:00 +15°C° 0 mm 2 mps 753 mmHg 90%
    04:00 +15°C° 0 mm 2 mps 752 mmHg 89%
    05:00 +14°C° 0 mm 3 mps 752 mmHg 84%
    06:00 +14°C° 0 mm 4 mps 752 mmHg 80%
    07:00 +15°C° 0 mm 5 mps 752 mmHg 75%
    08:00 +15°C° 0.3 mm 4 mps 752 mmHg 78%
    09:00 +14°C° 0.3 mm 3 mps 752 mmHg 80%
    10:00 +14°C° 0.3 mm 3 mps 752 mmHg 83%
    11:00 +17°C° 0.9 mm 4 mps 751 mmHg 81%
    12:00 +18°C° 0.9 mm 4 mps 751 mmHg 78%
    13:00 +19°C° 0.9 mm 5 mps 751 mmHg 76%
    14:00 +19°C° 0.3 mm 5 mps 751 mmHg 72%
    15:00 +19°C° 0.3 mm 4 mps 751 mmHg 67%
    16:00 +19°C° 0.3 mm 4 mps 752 mmHg 63%
    17:00 +18°C° 0.1 mm 3 mps 751 mmHg 67%
    18:00 +18°C° 0.1 mm 2 mps 751 mmHg 71%
    19:00 +18°C° 0.1 mm 1 mps 751 mmHg 75%
    20:00 +16°C° 0 mm 2 mps 751 mmHg 77%
    21:00 +14°C° 0 mm 3 mps 751 mmHg 79%
    22:00 +14°C° 0 mm 3 mps 751 mmHg 80%
    23:00 +13°C° 0.1 mm 4 mps 751 mmHg 82%

    Tomorrow, 17 July, Wednesday

    Time Temperature Precipitation Wind Pressure Humidity
    00:00 +13°C° 0.1 mm 4 mps 751 mmHg 84%
    01:00 +13°C° 0.1 mm 4 mps 751 mmHg 85%
    02:00 +13°C° 0 mm 4 mps 751 mmHg 87%
    03:00 +12°C° 0 mm 4 mps 751 mmHg 89%
    04:00 +11°C° 0 mm 4 mps 751 mmHg 91%
    05:00 +12°C° 0.1 mm 5 mps 751 mmHg 87%
    06:00 +14°C° 0.1 mm 6 mps 751 mmHg 84%
    07:00 +15°C° 0.1 mm 7 mps 751 mmHg 80%
    08:00 +15°C° 0.3 mm 6 mps 752 mmHg 78%
    09:00 +16°C° 0.3 mm 6 mps 752 mmHg 75%
    10:00 +17°C° 0.3 mm 6 mps 752 mmHg 73%
    11:00 +17°C° 0.1 mm 6 mps 752 mmHg 69%
    12:00 +19°C° 0.1 mm 6 mps 752 mmHg 65%
    13:00 +19°C° 0.1 mm 6 mps 752 mmHg 61%
    14:00 +19°C° 0 mm 6 mps 752 mmHg 62%
    15:00 +19°C° 0 mm 6 mps 753 mmHg 63%
    16:00 +19°C° 0 mm 6 mps 753 mmHg 64%
    17:00 +17°C° 0 mm 5 mps 753 mmHg 69%
    18:00 +16°C° 0 mm 5 mps 753 mmHg 75%
    19:00 +15°C° 0 mm 4 mps 753 mmHg 80%
    20:00 +14°C° 0 mm 4 mps 753 mmHg 83%
    21:00 +14°C° 0 mm 4 mps 753 mmHg 86%
    22:00 +13°C° 0 mm 4 mps 753 mmHg 89%
    23:00 +12°C° 0 mm 3 mps 753 mmHg 91%

    Day after tomorrow, 18 July, Thursday

    Time Temperature Precipitation Wind Pressure Humidity
    00:00 +12°C° 0 mm 3 mps 753 mmHg 94%
    01:00 +12°C° 0 mm 3 mps 753 mmHg 96%
    02:00 +12°C° 0 mm 3 mps 753 mmHg 96%
    03:00 +11°C° 0 mm 3 mps 753 mmHg 96%
    04:00 +11°C° 0 mm 3 mps 753 mmHg 96%
    05:00 +13°C° 0 mm 3 mps 754 mmHg 90%
    06:00 +16°C° 0 mm 3 mps 754 mmHg 85%
    07:00 +18°C° 0 mm 4 mps 754 mmHg 79%
    08:00 +19°C° 0 mm 4 mps 754 mmHg 73%
    09:00 +20°C° 0 mm 4 mps 754 mmHg 66%
    10:00 +21°C° 0 mm 4 mps 754 mmHg 60%
    11:00 +22°C° 0 mm 4 mps 754 mmHg 58%
    12:00 +22°C° 0 mm 4 mps 754 mmHg 57%
    13:00 +22°C° 0 mm 4 mps 754 mmHg 56%
    14:00 +22°C° 0 mm 4 mps 754 mmHg 58%
    15:00 +22°C° 0 mm 4 mps 754 mmHg 59%
    16:00 +21°C° 0 mm 4 mps 754 mmHg 61%
    17:00 +20°C° 0 mm 4 mps 754 mmHg 68%
    18:00 +19°C° 0 mm 3 mps 754 mmHg 74%
    19:00 +18°C° 0 mm 2 mps 754 mmHg 81%
    20:00 +16°C° 0 mm 1 mps 754 mmHg 85%
    21:00 +15°C° 0 mm 1 mps 755 mmHg 88%
    22:00 +13°C° 0 mm 1 mps 755 mmHg 92%
    23:00 +12°C° 0 mm 0 mps 755 mmHg 92%

    19 July, Friday

    Time Temperature Precipitation Wind Pressure Humidity
    00:00 +12°C° 0 mm 0 mps 755 mmHg 92%
    01:00 +11°C° 0 mm 0 mps 755 mmHg 92%
    02:00 +11°C° 0 mm 0 mps 755 mmHg 92%
    03:00 +11°C° 0 mm 0 mps 755 mmHg 91%
    04:00 +11°C° 0 mm 0 mps 755 mmHg 91%
    05:00 +13°C° 0 mm 0 mps 755 mmHg 86%
    06:00 +15°C° 0 mm 0 mps 755 mmHg 80%
    07:00 +19°C° 0 mm 1 mps 755 mmHg 74%
    08:00 +20°C° 0 mm 1 mps 755 mmHg 68%
    09:00 +22°C° 0 mm 1 mps 755 mmHg 63%
    10:00 +23°C° 0 mm 1 mps 755 mmHg 57%
    11:00 +24°C° 0 mm 1 mps 755 mmHg 55%
    12:00 +25°C° 0 mm 1 mps 755 mmHg 53%
    13:00 +26°C° 0 mm 1 mps 755 mmHg 51%
    14:00 +25°C° 0.1 mm 1 mps 755 mmHg 53%
    15:00 +25°C° 0.1 mm 1 mps 755 mmHg 55%
    16:00 +25°C° 0.1 mm 1 mps 754 mmHg 57%
    17:00 +24°C° 0.2 mm 1 mps 754 mmHg 63%
    18:00 +21°C° 0.2 mm 2 mps 754 mmHg 70%
    19:00 +20°C° 0.2 mm 2 mps 755 mmHg 76%
    20:00 +19°C° 0 mm 2 mps 755 mmHg 79%
    21:00 +18°C° 0 mm 2 mps 755 mmHg 81%
    22:00 +16°C° 0 mm 2 mps 755 mmHg 83%
    23:00 +16°C° 0 mm 2 mps 755 mmHg 84%

    20 July, Saturday

    Time Temperature Precipitation Wind Pressure Humidity
    00:00 +16°C° 0 mm 2 mps 755 mmHg 85%
    01:00 +15°C° 0 mm 2 mps 755 mmHg 86%
    02:00 +15°C° 0 mm 1 mps 755 mmHg 86%
    03:00 +15°C° 0 mm 1 mps 755 mmHg 86%
    04:00 +14°C° 0 mm 0 mps 755 mmHg 85%
    05:00 +16°C° 0.1 mm 1 mps 755 mmHg 84%
    06:00 +18°C° 0.1 mm 1 mps 756 mmHg 83%
    07:00 +19°C° 0.1 mm 1 mps 756 mmHg 82%
    08:00 +18°C° 0.1 mm 2 mps 756 mmHg 81%
    09:00 +19°C° 0.1 mm 2 mps 756 mmHg 80%
    10:00 +19°C° 0.1 mm 2 mps 756 mmHg 79%
    11:00 +21°C° 0 mm 2 mps 756 mmHg 72%
    12:00 +24°C° 0 mm 2 mps 756 mmHg 64%
    13:00 +26°C° 0 mm 2 mps 756 mmHg 57%
    14:00 +25°C° 0.5 mm 2 mps 756 mmHg 60%
    15:00 +25°C° 0.5 mm 2 mps 756 mmHg 62%
    16:00 +25°C° 0.5 mm 2 mps 756 mmHg 65%
    17:00 +24°C° 0.4 mm 2 mps 756 mmHg 71%
    18:00 +23°C° 0.4 mm 2 mps 756 mmHg 77%
    19:00 +21°C° 0.4 mm 2 mps 756 mmHg 83%
    20:00 +20°C° 0 mm 2 mps 756 mmHg 85%
    21:00 +19°C° 0 mm 2 mps 756 mmHg 88%
    22:00 +18°C° 0 mm 2 mps 756 mmHg 90%
    23:00 +18°C° 0 mm 1 mps 756 mmHg 90%

    21 July, Sunday

    Time Temperature Precipitation Wind Pressure Humidity
    00:00 +18°C° 0 mm 1 mps 756 mmHg 91%
    01:00 +18°C° 0 mm 1 mps 756 mmHg 91%
    02:00 +16°C° 0 mm 1 mps 756 mmHg 92%
    03:00 +16°C° 0 mm 1 mps 756 mmHg 92%
    04:00 +16°C° 0 mm 1 mps 756 mmHg 93%
    05:00 +18°C° 0 mm 1 mps 756 mmHg 90%
    06:00 +18°C° 0 mm 2 mps 756 mmHg 87%
    07:00 +20°C° 0 mm 2 mps 756 mmHg 84%
    08:00 +20°C° 0 mm 2 mps 757 mmHg 80%
    09:00 +21°C° 0 mm 2 mps 757 mmHg 76%
    10:00 +23°C° 0 mm 2 mps 757 mmHg 71%
    11:00 +24°C° 0.2 mm 2 mps 757 mmHg 67%
    12:00 +25°C° 0.2 mm 2 mps 757 mmHg 62%
    13:00 +26°C° 0.2 mm 2 mps 757 mmHg 58%
    14:00 +26°C° 0.2 mm 2 mps 757 mmHg 59%
    15:00 +26°C° 0.2 mm 2 mps 757 mmHg 59%
    16:00 +25°C° 0.2 mm 2 mps 757 mmHg 60%
    17:00 +24°C° 0.5 mm 1 mps 757 mmHg 67%
    18:00 +23°C° 0.5 mm 1 mps 757 mmHg 74%
    19:00 +22°C° 0.5 mm 1 mps 757 mmHg 81%
    20:00 +20°C° 0.1 mm 1 mps 757 mmHg 85%
    21:00 +19°C° 0.1 mm 1 mps 757 mmHg 88%
    22:00 +18°C° 0.1 mm 1 mps 757 mmHg 91%
    23:00 +16°C° 0 mm 1 mps 757 mmHg 92%
    Show more